sat.trackr.live / text

‹ back to catalog

YAOGAN-39 03A

NORAD 57986 · 2023-152A

PAYLOAD ACTIVE UNKNOWN

§ Identity

Operator
Country
PRC
Launch date
2023-10-05
Launch site
XICLF
Launch vehicle
Mass (kg)
RCS (m²)

External: N2YO · Heavens-Above · Gunter

§ Orbital elements

Epoch: 2026-09-21T18:02:54.924576Z

Period
94.56 min
Inclination
35.0019°
Eccentricity
0.0003819
Mean motion
15.22891484 rev/d
Perigee alt
494.5 km
Apogee alt
499.7 km
Semi-major
6,875.3 km
B*
2.5717e-4
RAAN
25.2316°
Arg perigee
311.2390°
Mean anomaly
48.7995°
Rev number
16,517

§ Raw data

YAOGAN-39 03A1 57986U 23152A   26264.75202459  .00006144  00000+0  25717-3 0  99912 57986  35.0019  25.2316 0003819 311.2390  48.7995 15.22891484165170

JSON: /api/v1/satellites/57986 · /tle

For live sub-satellite position, see the globe view (requires WebGL).

§ Visibility from observer

Set your observer location to see the next 7 days of passes ≥ 10°. The values pass through the URL so the page stays shareable.

No JS? Fill the form by hand. The geolocation button needs JavaScript.